Location: Niedergestelen
(46.3129°N, 7.7822°E)
Time: 05:29:58
(UTC+00:00)

Cosmos 44 Rocket - Pass Details

Date: 01 December 2020
Orbit: 639 x 751 km, 65.1° (Epoch: 18 January)

Event Time Altitude Azimuth Distance (km) Brightness Sun altitude
Rises 17:35:40 0° 325° (NW) 3,166 7.0 -18.6°
Reaches altitude 10° 17:38:04 10° 329° (NNW) 2,253 6.1 -19.0°
Maximum altitude 17:43:11 60° 50° (NE) 857 3.4 -19.9°
Enters shadow 17:45:10 36° 114° (ESE) 1,178 4.0 -20.2°
